SHIYAN-30 02

Last updated on Mon Oct 20 2025 00:02:07 GMT+0000 (Coordinated Universal Time)

1 65852U 25222B 25292.63504230 .00005557 00000+0 52771-3 0 9998 2 65852 34.9970 265.5491 0006323 152.7971 207.3066 14.92918688 3056
UTC large
Height (km)
Speed (km/s)
/
Latitude / Longitude
Inclination (degrees)
Orbital Period (minutes)
Azimuth
Elevation
Range (km)
Doppler Factor

Next 0 passes for location: London (51.5072 / 0.1276)

Sorry there are no passes over London.